SCP
0 0 0 0 1 1 0 1 1 0 0 0 0 0 0 0 0 0 0 0 0 0
0 0 0 1 1 1 0 1 1 0 0 0 0 0 1 1 0 0 0 0 0 0
0 1 1 0 0 0 0 0 0 0 0 0 0 0 0 0 0 0 0 0 0 0
1 1 0 0 0 0 0 0 0 0 0 0 0 0 0 0 0 0 0 0 0 0
1 1 0 0 0 0 0 0 0 0 0 0 0 0 0 0 0 0 0 0 0 0
1 0 0 0 0 0 0 0 0 0 0 0 0 0 -0 -0 0 0 0 0 0 0
0 0 0 0 0 0 0 0 0 0 0 -0 -0 -0 -0 0 0 0 0 0 0 0
0 0 0 0 0 0 0 0 0 -0 -0 -0 -0 0 0 0 0 0 0 0 0 0
0 0 0 0 0 0 0 0 0 -0 0 0 0 0 0 0 0 0 0 0 0 0
0 0 0 0 0 0 0 0 0 0 0 0 0 0 0 0 0 0 0 0 0 0
0 0 0 0 0 0 0 0 0 0 0 0 0 0 0 0 0 0 0 0 0 0
0 0 0 0 0 0 0 0 0 0 0 0 0 0 0 0 0 0 0 0 0 0
0 0 0 0 0 0 0 0 0 0 0 0 0 0 0 0 0 0 0 0 0 0
0 0 0 0 0 0 0 0 0 0 0 0 0 0 0 0 0 0 0 0 0 0
Wind_Speed_500mb
36 33 35 33 31 29 33 26 24 20 23 30 23 22 19 21 19 18 25 29 31 35
35 29 30 32 29 29 27 29 25 18 19 21 10 9 10 13 19 24 30 34 37 39
26 27 25 24 26 23 22 22 18 15 12 11 8 12 15 20 26 31 32 34 36 36
21 21 19 17 19 14 11 14 8 6 2 4 9 18 26 30 29 28 29 30 28 29
20 20 16 12 8 8 10 10 10 4 7 14 23 29 28 22 15 17 19 17 21 21
21 18 15 14 17 17 14 10 1 6 14 20 19 14 13 13 15 17 20 26 31 30
21 23 22 19 16 16 14 5 3 14 17 16 13 13 15 20 23 25 28 33 34 33
21 18 18 17 15 13 7 1 9 7 14 18 20 16 17 24 33 32 39 42 41 36
17 17 18 14 13 11 3 7 5 7 16 19 21 23 32 38 44 44 50 51 45 48
15 10 10 13 6 5 5 12 11 17 24 26 28 32 38 44 49 51 50 47 51 49
6 7 5 2 3 6 14 13 17 24 28 30 34 37 43 47 50 49 37 33 35 37
4 1 4 9 8 13 16 21 26 31 35 36 35 40 45 45 38 34 31 27 34 34
4 6 6 8 12 19 27 32 34 33 35 33 36 43 39 34 34 27 27 28 26 18
7 8 12 18 24 30 32 31 31 29 33 41 40 37 35 33 33 28 29 20 21 22
Wind_Direction_500mb
236 239 246 247 244 250 240 242 246 241 249 274 280 287 294 315 307 303 304 304 306 305
235 237 240 243 245 255 246 248 259 257 275 288 299 306 330 326 314 310 306 302 299 293
230 237 237 250 256 249 256 258 259 271 254 270 300 319 324 321 316 309 301 294 296 299
224 226 235 239 243 246 246 278 245 204 273 10 338 327 325 321 318 308 303 302 303 303
199 220 208 202 205 197 138 137 121 90 354 341 330 324 323 329 338 321 316 315 316 312
185 162 144 148 146 136 133 137 125 313 318 324 341 352 358 6 345 327 318 311 312 307
136 118 123 139 145 143 151 159 318 334 4 29 24 16 360 346 330 312 307 304 305 310
109 116 133 138 148 150 155 214 348 360 9 5 4 334 312 320 327 314 317 313 310 302
120 136 148 138 142 153 161 349 326 333 337 332 321 310 315 311 314 312 314 310 303 299
111 127 126 127 134 161 322 327 317 325 326 322 312 309 309 305 310 311 311 304 303 301
61 111 129 98 206 297 324 331 328 320 315 310 301 304 305 309 310 313 314 311 306 306
356 17 332 336 311 312 311 309 308 306 307 305 300 304 305 309 317 318 316 313 311 310
314 319 353 352 328 309 304 300 300 298 304 303 305 307 308 312 318 317 314 314 312 309
306 300 306 304 300 300 303 301 295 301 306 308 308 306 303 310 311 310 317 307 312 310
Wind_Speed_850mb
36 33 35 33 31 29 33 26 24 20 23 30 23 22 19 21 19 18 25 29 31 35
35 29 30 32 29 29 27 29 25 18 19 21 10 9 10 13 19 24 30 34 37 39
26 27 25 24 26 23 22 22 18 15 12 11 8 12 15 20 26 31 32 34 36 36
21 21 19 17 19 14 11 14 8 6 2 4 9 18 26 30 29 28 29 30 28 29
20 20 16 12 8 8 10 10 10 4 7 14 23 29 28 22 15 17 19 17 21 21
21 18 15 14 17 17 14 10 1 6 14 20 19 14 13 13 15 17 20 26 31 30
21 23 22 19 16 16 14 5 3 14 17 16 13 13 15 20 23 25 28 33 34 33
21 18 18 17 15 13 7 1 9 7 14 18 20 16 17 24 33 32 39 42 41 36
17 17 18 14 13 11 3 7 5 7 16 19 21 23 32 38 44 44 50 51 45 48
15 10 10 13 6 5 5 12 11 17 24 26 28 32 38 44 49 51 50 47 51 49
6 7 5 2 3 6 14 13 17 24 28 30 34 37 43 47 50 49 37 33 35 37
4 1 4 9 8 13 16 21 26 31 35 36 35 40 45 45 38 34 31 27 34 34
4 6 6 8 12 19 27 32 34 33 35 33 36 43 39 34 34 27 27 28 26 18
7 8 12 18 24 30 32 31 31 29 33 41 40 37 35 33 33 28 29 20 21 22
Wind_Direction_850mb
236 239 246 247 244 250 240 242 246 241 249 274 280 287 294 315 307 303 304 304 306 305
235 237 240 243 245 255 246 248 259 257 275 288 299 306 330 326 314 310 306 302 299 293
230 237 237 250 256 249 256 258 259 271 254 270 300 319 324 321 316 309 301 294 296 299
224 226 235 239 243 246 246 278 245 204 273 10 338 327 325 321 318 308 303 302 303 303
199 220 208 202 205 197 138 137 121 90 354 341 330 324 323 329 338 321 316 315 316 312
185 162 144 148 146 136 133 137 125 313 318 324 341 352 358 6 345 327 318 311 312 307
136 118 123 139 145 143 151 159 318 334 4 29 24 16 360 346 330 312 307 304 305 310
109 116 133 138 148 150 155 214 348 360 9 5 4 334 312 320 327 314 317 313 310 302
120 136 148 138 142 153 161 349 326 333 337 332 321 310 315 311 314 312 314 310 303 299
111 127 126 127 134 161 322 327 317 325 326 322 312 309 309 305 310 311 311 304 303 301
61 111 129 98 206 297 324 331 328 320 315 310 301 304 305 309 310 313 314 311 306 306
356 17 332 336 311 312 311 309 308 306 307 305 300 304 305 309 317 318 316 313 311 310
314 319 353 352 328 309 304 300 300 298 304 303 305 307 308 312 318 317 314 314 312 309
306 300 306 304 300 300 303 301 295 301 306 308 308 306 303 310 311 310 317 307 312 310